Location: Bothwell
(42.3833°S, 147.0000°E)
Time: 01:32:54
(UTC+10:00)

ESTCUBE 1 - Visible Passes

Search period start: 01 October 2022 23:00
Search period end: 12 October 2022 00:00
Orbit: 643 x 658 km, 97.9° (Epoch: 01 October)

Date Brightness Start Highest point End Pass type
(mag) Time Alt. Az. Time Alt. Az. Time Alt. Az.
08 Oct ? 00:26:56 10° S 00:26:56 10° S 00:26:56 10° S visible
09 Oct ? 00:54:05 10° S 00:54:12 11° S 00:54:12 11° S visible
11 Oct ? 00:10:42 10° SSE 00:10:53 11° SSE 00:10:53 11° SSE visible
